www.pogodaiklimat.ru

Погода и климат >> Архив погоды >> Австралия >> Новый Южный Уэльс >> Тибообера


ПОГОДА в Тибообере

  • Прогноз погоды в Тибообере
  • Монитор погоды в Тибообере

АРХИВ ПОГОДЫ в Тибообере

Время (UTC), дата Ветер
(напр.,м/с)
 
Видим.   Явления Облачность Т
(С)
Тd
(С)
f
(%)
Тe
(С)
Тes
(С)
Комфортность P
(гПа)
Po
(гПа)
Тmin
(С)
Tmax
(С)
R
(мм)
R24
(мм)
S
(см)
01 14.05 ЮВ 6 н/о н/о +19.7 +6.8 43 +20 +20 1027.5 1006.4
02 14.05 В 8 н/о н/о +21.7 +5.6 35 +22 +22 комфорт 1026.7 1005.6 +11.4
03 14.05 В 7 н/о н/о +22.6 +6.0 34 +23 +23 комфорт 1025.9 1004.8
04 14.05 В 7 н/о н/о +23.4 +5.8 32 +24 +24 комфорт 1025.2 1004.1
05 14.05 ЮВ 6 н/о н/о +23.7 +6.5 33 +24 +24 комфорт 1024.9 1003.8
06 14.05 ЮВ 6 н/о н/о +23.5 +6.3 33 +24 +24 комфорт 1024.9 1003.8
07 14.05 ЮВ 7 н/о н/о +22.8 +6.1 34 +23 +23 комфорт 1025.2 1004.1
08 14.05 ЮВ 6 н/о н/о +21.4 +6.5 38 +22 +22 комфорт 1025.7 1004.6
09 14.05 ЮВ 5 н/о н/о +20.0 +7.1 43 +21 +21 комфорт 1026.3 1005.2
10 14.05 ЮВ 5 н/о н/о +18.6 +7.1 47 +19 +19 1026.8 1005.7
11 14.05 ЮВ 5 н/о н/о +17.8 +5.7 45 +17 +17 1027.2 1006.1
12 14.05 ЮВ 6 н/о н/о +17.0 +5.0 45 +16 +16 1027.4 1006.3
13 14.05 ЮВ 6 н/о н/о +16.1 +4.8 47 +15 +15 1027.3 1006.2
14 14.05 ЮВ 6 н/о н/о +15.7 +5.0 49 +15 +15 1027.3 1006.2 +24.3
15 14.05 ЮВ 5 н/о н/о +15.3 +5.0 50 +14 +14 1027.3 1006.2
16 14.05 ЮВ 5 н/о н/о +14.8 +5.3 53 +13 +13 1027.1 1006.0
17 14.05 ЮВ 5 н/о н/о +14.9 +5.7 54 +14 +14 1027.0 1005.9
18 14.05 ЮВ 5 н/о н/о +14.3 +5.7 56 +13 +13 1027.0 1005.9
19 14.05 ЮВ 5 н/о н/о +13.9 +5.8 58 +12 +12 1026.9 1005.8
20 14.05 Ю 4 н/о н/о +13.6 +6.0 60 +12 +12 1027.1 1006.0
21 14.05 Ю 4 н/о н/о +13.0 +5.9 62 +12 +12 1027.8 1006.7
22 14.05 Ю 4 н/о н/о +13.1 +6.2 63 +11 +11 1028.6 1007.4
23 14.05 ЮВ 5 н/о н/о +15.5 +6.2 54 +14 +14 1029.0 1007.8
00 15.05 ЮВ 5 н/о н/о +16.9 +6.4 50 +16 +16 1029.2 1008.0
01 15.05 ЮВ 5 н/о н/о +19.2 +6.3 43 +19 +19 1028.8 1007.6
02 15.05 ЮВ 6 н/о н/о +20.7 +6.3 39 +21 +21 комфорт 1027.8 1006.7 +12.9
03 15.05 В 6 н/о н/о +22.5 +5.4 33 +23 +23 комфорт 1026.7 1005.6
04 15.05 В 5 н/о н/о +23.8 +6.1 32 +24 +24 комфорт 1026.0 1004.9
05 15.05 ЮВ 5 н/о н/о +23.2 +5.6 32 +24 +24 комфорт 1025.5 1004.4
06 15.05 ЮВ 6 н/о н/о +23.1 +5.5 32 +23 +23 комфорт 1025.4 1004.3
07 15.05 ЮВ 6 н/о н/о +22.6 +5.5 33 +23 +23 комфорт 1025.3 1004.2
08 15.05 ЮВ 5 н/о н/о +20.9 +5.3 36 +22 +22 комфорт 1025.6 1004.5
09 15.05 ЮВ 4 н/о н/о +19.2 +5.3 40 +20 +20 1026.1 1005.0
10 15.05 ЮВ 4 н/о н/о +18.1 +5.3 43 +18 +18 1026.6 1005.5
11 15.05 ЮВ 4 н/о н/о +17.1 +5.4 46 +17 +17 1027.0 1005.9
12 15.05 ЮВ 5 н/о н/о +16.5 +4.2 44 +16 +16 1027.2 1006.1
13 15.05 ЮВ 4 н/о н/о +15.7 +3.8 45 +15 +15 1027.0 1005.9
14 15.05 ЮВ 4 н/о н/о +15.3 +3.5 45 +14 +14 1026.6 1005.5 +24.4
15 15.05 ЮВ 3 н/о н/о +14.2 +3.7 49 +13 +13 1026.2 1005.1
16 15.05 Ю 3 н/о н/о +13.7 +3.5 50 +13 +13 1025.7 1004.6
17 15.05 Ю 3 н/о н/о +13.0 +3.9 54 +12 +12 1025.4 1004.3
18 15.05 Ю 3 н/о н/о +12.3 +3.8 56 +11 +11 1025.0 1003.9
19 15.05 Ю 3 н/о н/о +12.1 +3.9 57 +11 +11 1025.1 1004.0
20 15.05 Ю 4 н/о н/о +11.5 +3.8 59 +10 +10 1025.2 1004.1
21 15.05 Ю 3 н/о н/о +10.9 +3.9 62 +9 +9 1025.8 1004.7
22 15.05 Ю 2 н/о н/о +11.8 +4.5 61 +11 +11 1026.5 1005.4
23 15.05 ЮВ 4 н/о н/о +14.8 +4.5 50 +14 +14 1026.7 1005.6
00 16.05 ЮВ 5 н/о н/о +17.8 +3.3 38 +17 +17 1026.6 1005.5
01 16.05 В 5 н/о н/о +19.2 +3.8 36 +19 +19 1026.0 1004.9
02 16.05 ЮВ 6 н/о н/о +20.9 +3.6 32 +21 +21 комфорт 1025.1 1004.0 +10.2
03 16.05 ЮВ 5 н/о н/о +22.2 +3.8 30 +22 +22 комфорт 1023.9 1002.8
04 16.05 ЮВ 5 н/о н/о +22.7 +3.8 29 +23 +23 комфорт 1023.0 1002.0
05 16.05 В 6 н/о н/о +23.2 +3.7 28 +23 +23 комфорт 1022.4 1001.4
06 16.05 ЮВ 5 н/о н/о +23.1 +4.1 29 +23 +23 комфорт 1022.3 1001.3
07 16.05 ЮВ 5 н/о н/о +22.5 +3.6 29 +22 +22 комфорт 1022.2 1001.2
08 16.05 Ю 5 н/о н/о +20.8 +4.0 33 +21 +21 комфорт 1022.7 1001.7
09 16.05 Ю 4 н/о н/о +19.0 +4.4 38 +19 +19 1023.2 1002.2
10 16.05 Ю 3 н/о н/о +17.1 +4.4 43 +17 +17 1023.9 1002.8
11 16.05 Ю 4 н/о н/о +16.5 +4.9 46 +16 +16 1024.1 1003.0
12 16.05 Ю 3 н/о н/о +15.5 +4.6 48 +15 +15 1024.0 1002.9
13 16.05 ЮВ 2 н/о н/о +15.7 +4.4 47 +16 +16 1023.8 1002.7
14 16.05 ЮВ 3 н/о н/о +15.9 +4.0 45 +16 +16 1023.3 1002.3 +23.9
15 16.05 ЮВ 3 н/о н/о +15.3 +4.1 47 +15 +15 1023.1 1002.1
16 16.05 ЮВ 4 н/о н/о +15.8 +4.2 46 +15 +15 1022.8 1001.8
17 16.05 ЮВ 4 н/о н/о +14.8 +3.9 48 +14 +14 1022.6 1001.6
18 16.05 ЮВ 4 н/о н/о +15.0 +4.1 48 +14 +14 1022.4 1001.4
19 16.05 ЮВ 3 н/о н/о +14.1 +3.8 50 +13 +13 1022.5 1001.5
20 16.05 ЮВ 4 н/о н/о +15.0 +4.4 49 +14 +14 1022.7 1001.7
21 16.05 В 4 н/о н/о +14.6 +4.3 50 +14 +14 1023.1 1002.1
22 16.05 В 4 н/о н/о +15.3 +5.0 50 +14 +14 1023.5 1002.5
23 16.05 В 6 н/о н/о +18.2 +5.8 44 +18 +18 1023.9 1002.8
00 17.05 В 6 н/о н/о +19.8 +6.9 43 +20 +20 1024.1 1003.0
01 17.05 В 5 н/о н/о +21.5 +7.7 41 +22 +22 комфорт 1023.8 1002.7
02 17.05 В 5 н/о н/о +23.1 +8.8 40 +24 +24 комфорт 1022.9 1001.9 +14.1
03 17.05 В 4 н/о н/о +24.5 +9.6 39 +25 +25 комфорт 1021.8 1000.8
04 17.05 В 5 н/о н/о +26.3 +10.0 36 +27 +27 жарко 1021.1 1000.1
05 17.05 СВ 4 н/о н/о +26.7 +8.2 31 +27 +27 жарко 1020.6 999.6
06 17.05 В 4 н/о н/о +26.8 +10.1 35 +27 +27 жарко 1020.6 999.6
07 17.05 В 5 н/о н/о +25.9 +9.3 35 +26 +26 жарко 1020.8 999.8
08 17.05 В 4 н/о н/о +23.4 +9.4 41 +25 +25 комфорт 1021.4 1000.4
09 17.05 В 3 н/о н/о +21.4 +9.0 45 +23 +23 комфорт 1022.0 1001.0
10 17.05 В 4 н/о н/о +20.3 +9.2 49 +22 +22 комфорт 1022.7 1001.7
11 17.05 В 3 н/о н/о +18.9 +9.1 53 +20 +20 1023.2 1002.2
12 17.05 В 3 н/о н/о +18.6 +9.7 56 +19 +19 1023.5 1002.5
13 17.05 В 5 н/о н/о +18.5 +9.8 57 +19 +19 1023.5 1002.5
14 17.05 В 4 н/о н/о +17.4 +9.3 59 +17 +17 1023.5 1002.5 +27.0
15 17.05 В 4 н/о н/о +16.5 +9.2 62 +16 +16 1023.4 1002.4
16 17.05 В 4 н/о н/о +15.7 +9.1 65 +15 +15 1023.3 1002.3
17 17.05 В 4 н/о н/о +15.4 +8.9 65 +14 +14 1023.0 1002.0
18 17.05 В 3 н/о н/о +14.6 +9.0 69 +14 +14 1022.9 1001.9
19 17.05 В 3 н/о н/о +14.8 +9.6 71 +14 +14 1022.9 1001.9
20 17.05 СВ 4 н/о н/о +14.8 +9.8 72 +14 +14 1023.2 1002.2
21 17.05 СВ 5 н/о н/о +15.3 +10.5 73 +14 +14 1024.1 1003.0
22 17.05 СВ 4 н/о н/о +16.3 +10.8 70 +16 +16 1024.6 1003.5
23 17.05 СВ 5 н/о н/о +19.5 +11.3 59 +20 +20 1025.2 1004.1
00 18.05 СВ 6 н/о н/о +22.2 +10.7 48 +24 +24 комфорт 1025.9 1004.8
01 18.05 СВ 7 н/о н/о +25.1 +9.4 37 +26 +26 жарко 1025.5 1004.4
02 18.05 СВ 7 н/о н/о +25.9 +8.8 34 +26 +26 жарко 1024.7 1003.6 +14.6
03 18.05 СВ 6 н/о н/о +26.8 +8.7 32 +27 +27 жарко 1023.6 1002.6
04 18.05 СВ 5 н/о н/о +27.4 +8.3 30 +27 +27 жарко 1022.8 1001.8
05 18.05 СВ 5 н/о н/о +27.3 +8.2 30 +27 +27 жарко 1022.5 1001.5
06 18.05 В 6 н/о н/о +27.2 +8.1 30 +27 +27 жарко 1022.5 1001.5
07 18.05 В 5 н/о н/о +25.5 +8.1 33 +26 +26 жарко 1023.0 1002.0
08 18.05 В 5 н/о н/о +23.3 +8.2 38 +24 +24 комфорт 1023.4 1002.4
09 18.05 В 3 н/о н/о +20.9 +8.2 44 +23 +23 комфорт 1024.0 1002.9
10 18.05 В 3 н/о н/о +20.3 +8.0 45 +22 +22 комфорт 1024.8 1003.7
11 18.05 В 3 н/о н/о +19.3 +7.7 47 +20 +20 1025.2 1004.1
12 18.05 В 4 н/о н/о +17.6 +7.1 50 +17 +17 1024.9 1003.8
13 18.05 В 5 н/о н/о +18.1 +7.5 50 +18 +18 1024.8 1003.7
14 18.05 В 4 н/о н/о +17.5 +7.5 52 +17 +17 1024.6 1003.5 +28.2
15 18.05 В 4 н/о н/о +17.0 +7.9 55 +17 +17 1024.1 1003.0
16 18.05 В 3 н/о н/о +16.7 +8.7 59 +16 +16 1024.0 1002.9
17 18.05 В 3 н/о н/о +16.4 +9.1 62 +16 +16 1024.0 1002.9
18 18.05 В 2 н/о н/о +15.9 +9.3 65 +16 +16 1024.3 1003.2
19 18.05 В 3 н/о н/о +16.3 +10.2 67 +16 +16 1024.6 1003.5
20 18.05 В 3 н/о н/о +15.8 +10.3 70 +15 +15 1024.6 1003.5
21 18.05 В 3 н/о н/о +15.3 +10.3 72 +15 +15 1024.8 1003.7
22 18.05 В 3 н/о н/о +15.4 +11.0 75 +15 +15 1025.4 1004.3
23 18.05 СВ 4 н/о н/о +17.4 +11.2 67 +17 +17 1025.4 1004.3
00 19.05 СВ 6 н/о н/о +20.9 +11.0 53 +23 +23 комфорт 1025.4 1004.3
01 19.05 СВ 8 н/о н/о +22.7 +10.8 47 +25 +25 комфорт 1024.7 1003.6
02 19.05 СВ 8 н/о н/о +24.9 +9.2 37 +26 +26 жарко 1024.2 1003.1 +14.8
03 19.05 С 7 н/о н/о +26.2 +9.1 34 +27 +27 жарко 1022.9 1001.9
04 19.05 С 7 н/о н/о +26.6 +8.1 31 +27 +27 жарко 1022.4 1001.4
05 19.05 С 7 н/о н/о +27.1 +8.5 31 +27 +27 жарко 1021.8 1000.8
06 19.05 С 5 н/о н/о +26.7 +8.6 32 +27 +27 жарко 1021.9 1000.9
07 19.05 СВ 6 н/о н/о +25.6 +8.1 33 +26 +26 жарко 1021.7 1000.7
08 19.05 СВ 5 н/о н/о +23.6 +8.8 39 +24 +24 комфорт 1022.0 1001.0
09 19.05 СВ 4 н/о н/о +22.2 +9.4 44 +24 +24 комфорт 1022.5 1001.5
10 19.05 СВ 4 н/о н/о +21.8 +9.3 45 +23 +23 комфорт 1022.8 1001.8
11 19.05 С 4 н/о н/о +21.4 +9.6 47 +23 +23 комфорт 1023.4 1002.4
12 19.05 С 4 н/о н/о +20.8 +9.4 48 +23 +23 комфорт 1023.5 1002.5
13 19.05 С 3 н/о н/о +19.4 +9.6 53 +21 +21 комфорт 1023.4 1002.4
14 19.05 С 4 н/о н/о +19.3 +9.5 53 +20 +20 1023.4 1002.4 +27.4
15 19.05 С 4 н/о н/о +18.0 +9.1 56 +18 +18 1023.2 1002.2
16 19.05 С 3 н/о н/о +17.6 +9.2 58 +18 +18 1023.0 1002.0
17 19.05 С 4 н/о н/о +17.4 +8.8 57 +17 +17 1023.0 1002.0
18 19.05 С 4 н/о н/о +17.0 +8.4 57 +17 +17 1023.0 1002.0
19 19.05 С 4 н/о н/о +16.6 +8.1 57 +16 +16 1022.9 1001.9
20 19.05 С 4 н/о н/о +16.0 +7.7 58 +15 +15 1023.0 1002.0
21 19.05 С 4 н/о н/о +15.6 +7.9 60 +15 +15 1023.4 1002.4
22 19.05 С 4 н/о н/о +16.7 +8.1 57 +16 +16 1024.1 1003.0
23 19.05 С 5 н/о н/о +18.6 +8.6 52 +19 +19 1024.5 1003.4
00 20.05 С 6 н/о н/о +21.9 +7.0 38 +23 +23 комфорт 1024.7 1003.6
01 20.05 С 5 н/о н/о +24.6 +6.8 32 +25 +25 комфорт 1024.4 1003.3
02 20.05 С 5 н/о н/о +26.0 +7.1 30 +26 +26 жарко 1023.6 1002.6 +15.6
03 20.05 С 3 н/о н/о +27.1 +7.5 29 +27 +27 жарко 1022.6 1001.6
04 20.05 СЗ 3 н/о н/о +27.1 +7.0 28 +27 +27 жарко 1021.9 1000.9
05 20.05 СЗ 2 н/о н/о +27.4 +6.8 27 +27 +27 жарко 1021.6 1000.6
06 20.05 З 2 н/о н/о +27.7 +7.0 27 +27 +27 жарко 1021.4 1000.4
07 20.05 С 3 н/о н/о +26.7 +6.7 28 +26 +26 жарко 1021.4 1000.4
08 20.05 С 3 н/о н/о +24.2 +7.4 34 +24 +24 комфорт 1021.9 1000.9
09 20.05 С 3 н/о н/о +23.1 +7.6 37 +24 +24 комфорт 1022.4 1001.4
10 20.05 СВ 3 н/о н/о +22.3 +7.7 39 +23 +23 комфорт 1022.9 1001.9
11 20.05 С 4 н/о н/о +21.4 +7.3 40 +22 +22 комфорт 1023.6 1002.6
12 20.05 С 4 н/о н/о +21.1 +7.0 40 +22 +22 комфорт 1023.8 1002.7
13 20.05 С 4 н/о н/о +19.8 +6.9 43 +21 +21 комфорт 1023.5 1002.5
14 20.05 С 4 н/о н/о +19.1 +6.6 44 +20 +20 1023.3 1002.3 +28.3
15 20.05 С 4 н/о н/о +19.2 +6.7 44 +20 +20 1023.1 1002.1
16 20.05 С 4 н/о н/о +19.1 +6.9 45 +20 +20 1022.9 1001.9
17 20.05 С 3 н/о н/о +17.1 +6.0 48 +17 +17 1023.1 1002.1
18 20.05 С 4 н/о н/о +18.0 +7.1 49 +18 +18 1022.8 1001.8
19 20.05 С 4 н/о н/о +17.7 +6.9 49 +17 +17 1022.9 1001.9
20 20.05 С 4 н/о н/о +17.5 +6.7 49 +17 +17 1023.3 1002.3
21 20.05 С 4 н/о н/о +17.7 +6.3 47 +17 +17 1024.1 1003.0
22 20.05 С 3 н/о н/о +18.4 +6.6 46 +19 +19 1024.8 1003.7
23 20.05 С 3 н/о н/о +20.7 +6.6 40 +22 +22 комфорт 1025.1 1004.0

 

Местоположение метеостанции Тибообера (Новый Южный Уэльс, Австралия): широта -29.45 долгота 142.05 высота над уровнем моря 177 м.

В архиве по умолчанию представлена погода в Тибообере за последнюю неделю. Архивные данные за месяц целиком и за предыдущие месяцы, начиная с января 2011 года, Вы можете получить, выбрав интересующий диапазон дат из раскрывающегося списка и нажав кнопку "Ввод!".


*Определитесь, кто Вы:
робот инопланетянин человек

Внимание! Время в таблицах - всемирное. Для получения местного времени необходимо прибавить поправку, которая равна 10 ч.

Смотрите также архив погоды в соседних городах и на ближайших метеорологических станциях:

Погода в Уафт Клифс (Новый Южный Уэльс, Австралия) (184 км)
Погода в Фоулерс Гэп (Новый Южный Уэльс, Австралия) (184 км)
Погода в Месторождении Ballera (Квинсленд, Австралия) (227 км)
Погода в Мумбе (Южная Австралия, Австралия) (235 км)
Погода в Таргоминде (Квинсленд, Австралия) (237 км)
Погода в Уилкании (Новый Южный Уэльс, Австралия) (263 км)
Погода в Брокен-Хилл аэропорту (Новый Южный Уэльс, Австралия) (289 км)
Погода в Ли-Крике (Южная Австралия, Австралия) (372 км)
Погода в Бурке (Новый Южный Уэльс, Австралия) (382 км)
Погода в Марри (Южная Австралия, Австралия) (387 км)

Пояснения к столбцам:

Ветер - указаны скорость ветра в м/с - средняя за 10 мин, порывы в срок и между сроками (в фигурных скобках) и направление, откуда дует ветер: С - северный, СВ - северо-восточный, В - восточный, ЮВ - юго-восточный, Ю - южный, ЮЗ - юго-западный, З - западный, СЗ - северо-западный.
Видимость - горизонтальная дальность видимости в метрах или километрах. При видимости от 1 до 10 км при отсутствии осадков обычно наблюдается дымка, при ухудшении видимости до 1 км и менее - туман. В сухую погоду видимость может ухудшаться дымом, пылью или мглою.
Явления - указаны атмосферные явления, наблюдавшиеся в срок или в последний час перед сроком; фигурными скобками обозначены явления, наблюдавшиеся между сроками (за 1-3 часа до срока); квадратными скобками обозначены град или гололедные отложения с указанием их диаметра в мм.
Облачность - указаны через наклонную черту общая и нижняя облачность в баллах и высота нижней границы облаков в метрах; квадратными скобками обозначены формы облаков: Ci - перистые, Cs - перисто-слоистые, Cc - перисто-кучевые, Ac - высококучевые, As - высокослоистые, Sc - слоисто-кучевые, Ns - слоисто-дождевые, Cu - кучевые, Cb - кучево-дождевые. Подробнее классификацию облаков см. в Атласе облаков (PDF).
T - Температура воздуха - температура, измеренная на высоте 2 м над землей.
Td - Температура точки росы - температура, при понижении до которой содержащийся в воздухе водяной пар достигнет насыщения.
f - Относительная влажность воздуха - влажноcть воздуха, измеренная на высоте 2 м над землей.
Te - Эффективная температура - температура, которую ощущает одетый по сезону человек в тени. Характеристика душности погоды. При расчете учитывается влияние влажности воздуха и скорости ветра на теплоощущения человека.
Tes - Эффективная температура на солнце - температура, которую ощущает человек, с поправкой на солнечный нагрев. Характеристика знойности погоды. Зависит от высоты солнца над горизонтом, облачности и скорости ветра. Ночью, в пасмурную погоду, а также при ветре 12 м/с и более поправка равна нулю.
P - Атмосферное давление - приведенное к уровню моря атмосферное давление.
Po - Атмосферное давление - измеренное на уровне метеостанции атмосферное давление.
Tmin - Минимальная температура - минимум температуры воздуха на высоте 2 м над землей.
Tmax - Максимальная температура - максимум температуры воздуха на высоте 2 м над землей.
R - Количество осадков - Количество выпавших осадков за период времени, мм. При наведении курсора мыши на число - период времени, за который выпало указанное количество осадков.
R24 - Количество осадков - Количество выпавших осадков за 24 часа, мм.
S - Снежный покров - Высота снежного покрова, см. При наведении курсора мыши на число - состояние снежного покрова и степень покрытия местности в баллах.